EW5168 Weather Reports


Display with metric or nautical units.
time (UTC)temp
F
wind
direction
speed
MPH
gust
MPH
rain 1hr
in
rain 24hr
in
rain mn
in
humidity
%
barometer
mb
20260506133832 60 322 1.0 4.0 0.00 0.00 0.00 1 1011.6
20260506133828 60 322 2.0 4.0 0.00 0.00 0.00 1 1011.5
20260506133431 60 324 2.0 4.0 0.00 0.00 0.00 1 1011.5
20260506132326 60 332 2.0 4.0 0.00 0.00 0.00 1 1011.6
20260506131826 60 335 2.0 4.0 0.00 0.00 0.00 1 1011.5
20260506131326 60 328 2.0 5.0 0.00 0.00 0.00 1 1011.5
20260506130823 61 346 2.0 5.0 0.00 0.00 0.00 1 1011.3
20260506130323 61 322 2.0 3.0 0.00 0.00 0.00 1 1011.2
20260506125828 62 314 1.0 4.0 0.00 0.00 0.00 1 1010.9
20260506125823 62 313 2.0 4.0 0.00 0.00 0.00 1 1011.0
20260506124824 62 317 1.0 4.0 0.00 0.00 0.00 1 1010.9
20260506124325 63 321 1.0 4.0 0.00 0.00 0.00 1 1010.9
20260506123825 63 12 1.0 4.0 0.00 0.00 0.00 1 1010.7
20260506123321 63 320 1.0 3.0 0.00 0.00 0.00 1 1010.8
20260506122822 63 317 1.0 4.0 0.00 0.00 0.00 1 1010.5
20260506122321 63 312 1.0 4.0 0.00 0.00 0.00 1 1010.6
20260506121820 63 43 1.0 4.0 0.00 0.00 0.00 1 1010.3
20260506121325 64 320 1.0 3.0 0.00 0.00 0.00 1 1010.4
20260506121321 64 21 1.0 4.0 0.00 0.00 0.00 1 1010.4
20260506120319 64 23 2.0 4.0 0.00 0.00 0.00 1 1010.2
20260506115819 64 296 1.0 4.0 0.00 0.00 0.00 1 1010.2
20260506115318 64 321 1.0 3.0 0.00 0.00 0.00 1 1010.0
20260506114818 64 351 1.0 2.0 0.00 0.00 0.00 1 1010.0
20260506114318 64 342 1.0 2.0 0.00 0.00 0.00 1 1009.9
20260506113817 64 342 1.0 3.0 0.00 0.00 0.00 1 1009.9
20260506113317 65 325 1.0 3.0 0.00 0.00 0.00 1 1009.9
20260506112817 65 313 1.0 2.0 0.00 0.00 0.00 1 1009.9
20260506112321 65 335 1.0 3.0 0.00 0.00 0.00 1 1009.7
20260506112317 65 298 1.0 3.0 0.00 0.00 0.00 1 1009.9
20260506111317 65 317 1.0 4.0 0.00 0.00 0.00 1 1009.7
20260506110818 65 322 1.0 4.0 0.00 0.00 0.00 1 1009.7
20260506110317 65 306 1.0 3.0 0.00 0.00 0.00 1 1009.6
20260506105817 66 297 1.0 2.0 0.00 0.00 0.00 1 1009.5
20260506105321 67 334 1.0 2.0 0.00 0.00 0.00 1 1009.4
20260506105317 66 324 1.0 2.0 0.00 0.00 0.00 1 1009.5
20260506104317 67 17 1.0 2.0 0.00 0.00 0.00 1 1009.3
20260506103815 67 40 0.0 3.0 0.00 0.00 0.00 1 1009.1
20260506103315 67 317 0.0 3.0 0.00 0.00 0.00 1 1009.0
20260506102811 67 305 0.0 3.0 0.00 0.00 0.00 1 1009.0
20260506102311 68 324 0.0 2.0 0.00 0.00 0.00 1 1008.9
20260506101811 68 321 0.0 1.0 0.00 0.00 0.00 1 1008.8
20260506101311 68 321 0.0 3.0 0.00 0.00 0.00 1 1008.6
20260506100812 68 321 0.0 3.0 0.00 0.00 0.00 1 1008.6
20260506100311 68 321 0.0 0.0 0.00 0.00 0.00 1 1008.6
20260506095811 68 321 0.0 0.0 0.00 0.00 0.00 1 1008.5
20260506095315 69 321 0.0 1.0 0.00 0.00 0.00 1 1008.3
20260506095311 69 322 0.0 1.0 0.00 0.00 0.00 1 1008.4
20260506094308 69 318 0.0 0.0 0.00 0.00 0.00 1 1008.3
20260506093807 70 319 0.0 0.0 0.00 0.00 0.00 1 1008.2
20260506093307 71 319 0.0 0.0 0.00 0.00 0.00 1 1008.2
20260506092808 73 288 0.0 3.0 0.00 0.00 0.00 1 1008.2
20260506092309 75 160 1.0 4.0 0.00 0.00 0.00 1 1008.1
20260506092306 75 128 2.0 5.0 0.00 0.00 0.00 1 1008.1
20260506091305 75 195 2.0 5.0 0.00 0.00 0.00 1 1008.0
20260506090805 75 190 1.0 5.0 0.00 0.00 0.00 1 1007.9
20260506090308 75 166 2.0 5.0 0.00 0.00 0.00 1 1007.8
20260506090303 75 161 1.0 5.0 0.00 0.00 0.00 1 1007.9
20260506085306 76 219 2.0 6.0 0.00 0.00 0.00 1 1007.8
20260506085301 76 163 2.0 5.0 0.00 0.00 0.00 1 1007.8
20260506084300 76 155 3.0 6.0 0.00 0.00 0.00 1 1007.9
20260506083759 76 155 2.0 7.0 0.00 0.00 0.00 1 1007.8
20260506083259 76 145 2.0 7.0 0.00 0.00 0.00 1 1007.8
20260506082759 76 129 2.0 7.0 0.00 0.00 0.00 1 1007.8
20260506082259 76 182 3.0 8.0 0.00 0.00 0.00 1 1007.7
20260506081759 76 176 3.0 8.0 0.00 0.00 0.00 1 1007.7
20260506081258 76 183 3.0 8.0 0.00 0.00 0.00 1 1007.8
20260506080758 76 182 2.0 8.0 0.00 0.00 0.00 1 1007.8
20260506080303 76 205 2.0 6.0 0.00 0.00 0.00 1 1007.8
20260506080259 76 205 1.0 5.0 0.00 0.00 0.00 1 1007.8
20260506072755 76 192 2.0 9.0 0.00 0.00 0.00 1 1008.0
20260506072254 76 234 2.0 7.0 0.00 0.00 0.00 1 1008.0
20260506071754 76 207 3.0 8.0 0.00 0.00 0.00 1 1008.0
20260506071255 76 209 3.0 8.0 0.00 0.00 0.00 1 1008.1
20260506070755 76 127 3.0 9.0 0.00 0.00 0.00 1 1008.1
20260506070255 76 189 3.0 10.0 0.00 0.00 0.00 1 1008.0
20260506062254 76 164 2.0 7.0 0.00 0.00 0.00 1 1008.0
20260506061752 76 161 2.0 5.0 0.00 0.00 0.00 1 1008.0
20260506061256 76 182 2.0 7.0 0.00 0.00 0.00 1 1008.1
20260506061252 76 160 2.0 6.0 0.00 0.00 0.00 1 1008.1
20260506060253 76 221 2.0 7.0 0.00 0.00 0.00 1 1008.0
20260506050744 76 153 2.0 5.0 0.00 0.00 0.00 1 1007.7
20260506050244 76 192 2.0 7.0 0.00 0.00 0.00 1 1007.5
20260506044743 76 141 3.0 8.0 0.00 0.00 0.00 1 1007.4
20260506044244 76 149 3.0 8.0 0.00 0.00 0.00 1 1007.3
20260506043742 76 236 3.0 8.0 0.00 0.00 0.00 1 1007.3
20260506043240 76 175 1.0 6.0 0.00 0.00 0.00 1 1007.4
20260506042740 76 188 0.0 3.0 0.00 0.00 0.00 1 1007.4
20260506042239 76 171 0.0 4.0 0.00 0.00 0.00 1 1007.4
20260506041739 76 171 1.0 4.0 0.00 0.00 0.00 1 1007.4
20260506041238 76 176 1.0 4.0 0.00 0.00 0.00 1 1007.3
20260506040742 76 149 2.0 7.0 0.00 0.00 0.00 1 1007.1
20260506040738 76 191 2.0 7.0 0.00 0.00 0.00 1 1007.2
20260506035738 76 183 2.0 5.0 0.00 0.00 0.00 1 1007.0
20260506035238 76 170 2.0 5.0 0.00 0.00 0.00 1 1006.9
20260506034738 76 174 2.0 6.0 0.00 0.00 0.00 1 1006.9
20260506034238 76 184 3.0 7.0 0.00 0.00 0.00 1 1006.8
20260506033736 76 219 2.0 7.0 0.00 0.00 0.00 1 1006.7
20260506033235 76 159 2.0 6.0 0.00 0.00 0.00 1 1006.7
20260506032735 76 148 3.0 6.0 0.00 0.00 0.00 1 1006.6
20260506032236 76 148 3.0 6.0 0.00 0.00 0.00 1 1006.7
20260506031736 76 162 3.0 7.0 0.00 0.00 0.00 1 1006.6
20260506031235 76 184 2.0 7.0 0.00 0.00 0.00 1 1006.5
20260506030738 76 202 3.0 10.0 0.00 0.00 0.00 1 1006.1
20260506030734 76 161 2.0 7.0 0.00 0.00 0.00 1 1006.3
20260506025737 77 161 3.0 8.0 0.00 0.00 0.00 1 1005.8
20260506025733 77 157 3.0 10.0 0.00 0.00 0.00 1 1005.8
20260506024733 77 178 3.0 8.0 0.00 0.00 0.00 1 1005.8
20260506024234 77 186 3.0 7.0 0.00 0.00 0.00 1 1005.7
20260506023738 77 188 3.0 8.0 0.00 0.00 0.00 1 1005.5
20260506023734 77 168 3.0 8.0 0.00 0.00 0.00 1 1005.5
20260506022734 77 193 3.0 7.0 0.00 0.00 0.00 1 1005.5
20260506022232 77 153 3.0 6.0 0.00 0.00 0.00 1 1005.4
20260506021732 77 161 3.0 10.0 0.00 0.00 0.00 1 1005.3
20260506021231 77 192 4.0 11.0 0.00 0.00 0.00 1 1005.2
20260506020734 77 182 3.0 11.0 0.00 0.00 0.00 1 1005.3
20260506020730 77 144 3.0 9.0 0.00 0.00 0.00 1 1005.4
20260506015729 78 150 3.0 9.0 0.00 0.00 0.00 1 1005.3
20260506015230 78 180 3.0 9.0 0.00 0.00 0.00 1 1005.2
20260506014728 78 173 3.0 9.0 0.00 0.00 0.00 1 1005.1
20260506014228 78 147 3.0 9.0 0.00 0.00 0.00 1 1005.2
20260506013729 78 144 3.0 8.0 0.00 0.00 0.00 1 1005.1
20260506013227 78 144 3.0 8.0 0.00 0.00 0.00 1 1005.0
20260506012727 78 199 3.0 7.0 0.00 0.00 0.00 1 1005.1
20260506012225 79 162 3.0 11.0 0.00 0.00 0.00 1 1004.9
20260506011723 79 137 4.0 11.0 0.00 0.00 0.00 1 1004.9
20260506011222 79 163 3.0 8.0 0.00 0.00 0.00 1 1005.0
20260506010723 79 175 3.0 7.0 0.00 0.00 0.00 1 1005.0
20260506010225 80 150 4.0 9.0 0.00 0.00 0.00 1 1004.9
20260506010221 79 162 4.0 9.0 0.00 0.00 0.00 1 1004.9
20260506005221 80 152 3.0 10.0 0.00 0.00 0.00 3 1004.8
20260506004721 80 228 4.0 10.0 0.00 0.00 0.00 5 1004.8
20260506004221 80 142 4.0 10.0 0.00 0.00 0.00 6 1004.8
20260506003719 80 244 5.0 13.0 0.00 0.00 0.00 9 1004.6
20260506003219 81 144 4.0 13.0 0.00 0.00 0.00 12 1004.5
20260506002723 81 186 4.0 10.0 0.00 0.00 0.00 13 1004.5
20260506002719 82 190 4.0 10.0 0.00 0.00 0.00 15 1004.8
20260506001717 82 150 4.0 12.0 0.00 0.00 0.00 15 1004.8
20260506001221 82 172 5.0 13.0 0.00 0.00 0.00 17 1004.9
20260506001217 82 150 5.0 13.0 0.00 0.00 0.00 17 1004.8
20260506000219 82 140 4.0 14.0 0.00 0.00 0.00 17 1004.9
20260505235715 82 203 5.0 14.0 0.00 0.00 0.00 19 1004.8
20260505235215 82 149 5.0 14.0 0.00 0.00 0.00 21 1004.8
20260505234715 82 139 5.0 14.0 0.00 0.00 0.00 21 1004.6
20260505234215 83 190 4.0 12.0 0.00 0.00 0.00 22 1004.6
20260505233715 83 178 4.0 11.0 0.00 0.00 0.00 22 1004.6
20260505233215 83 181 5.0 13.0 0.00 0.00 0.00 22 1004.5
20260505232713 83 152 5.0 13.0 0.00 0.00 0.00 23 1004.5
20260505232216 83 143 4.0 13.0 0.00 0.00 0.00 23 1004.6
20260505232212 83 200 4.0 13.0 0.00 0.00 0.00 24 1004.6
20260505231211 83 190 4.0 13.0 0.00 0.00 0.00 24 1004.5
20260505230713 83 124 5.0 11.0 0.00 0.00 0.00 26 1004.3
20260505230709 83 198 5.0 13.0 0.00 0.00 0.00 25 1004.4
20260505225713 83 196 5.0 16.0 0.00 0.00 0.00 26 1004.4
20260505225709 83 197 5.0 16.0 0.00 0.00 0.00 25 1004.4
20260505225314 83 211 5.0 15.0 0.00 0.00 0.00 25 1004.5
20260505224207 83 155 5.0 15.0 0.00 0.00 0.00 25 1004.5
20260505223706 83 165 5.0 15.0 0.00 0.00 0.00 26 1004.6
20260505223207 83 128 6.0 15.0 0.00 0.00 0.00 25 1004.5
20260505222707 83 194 6.0 19.0 0.00 0.00 0.00 25 1004.4
20260505222209 84 163 6.0 19.0 0.00 0.00 0.00 27 1004.4
20260505222205 84 213 6.0 16.0 0.00 0.00 0.00 26 1004.3
20260505221205 84 209 5.0 16.0 0.00 0.00 0.00 26 1004.3
20260505220705 84 163 5.0 13.0 0.00 0.00 0.00 25 1004.3
20260505220206 84 146 5.0 14.0 0.00 0.00 0.00 27 1004.5
20260505215705 84 167 4.0 14.0 0.00 0.00 0.00 28 1004.4
20260505215206 84 173 5.0 23.0 0.00 0.00 0.00 29 1004.4
20260505214705 84 153 5.0 23.0 0.00 0.00 0.00 31 1004.4
20260505214203 85 153 5.0 12.0 0.00 0.00 0.00 28 1004.5
20260505213703 84 178 5.0 16.0 0.00 0.00 0.00 30 1004.6
20260505213201 84 171 5.0 16.0 0.00 0.00 0.00 32 1004.8
20260505212659 85 212 5.0 14.0 0.00 0.00 0.00 32 1004.9
20260505212159 85 195 5.0 11.0 0.00 0.00 0.00 34 1005.0
20260505211703 85 192 4.0 14.0 0.00 0.00 0.00 33 1005.0
20260505211659 85 180 5.0 14.0 0.00 0.00 0.00 34 1005.0
20260505210657 85 213 5.0 13.0 0.00 0.00 0.00 33 1005.1
20260505210157 85 196 5.0 13.0 0.00 0.00 0.00 33 1005.2
20260505205658 85 192 5.0 11.0 0.00 0.00 0.00 33 1005.3
20260505205157 85 180 5.0 11.0 0.00 0.00 0.00 33 1005.4
20260505204657 85 182 5.0 12.0 0.00 0.00 0.00 34 1005.5
20260505204201 85 180 5.0 12.0 0.00 0.00 0.00 33 1005.6
20260505204157 85 238 5.0 12.0 0.00 0.00 0.00 32 1005.6
20260505203803 85 201 4.0 12.0 0.00 0.00 0.00 32 1005.6
20260505202657 85 155 4.0 15.0 0.00 0.00 0.00 30 1005.6
20260505202201 84 182 5.0 13.0 0.00 0.00 0.00 31 1005.5
20260505202156 85 210 5.0 15.0 0.00 0.00 0.00 31 1005.5
20260505201154 84 121 6.0 16.0 0.00 0.00 0.00 31 1005.5
20260505200655 84 207 6.0 16.0 0.00 0.00 0.00 30 1005.6
20260505200155 84 153 7.0 16.0 0.00 0.00 0.00 30 1005.6
20260505195654 84 194 6.0 16.0 0.00 0.00 0.00 30 1005.6
20260505195155 84 163 5.0 15.0 0.00 0.00 0.00 29 1005.8
20260505194654 84 171 6.0 15.0 0.00 0.00 0.00 30 1005.8
20260505194153 84 159 6.0 17.0 0.00 0.00 0.00 29 1005.7
20260505193653 84 194 6.0 17.0 0.00 0.00 0.00 28 1005.8
20260505193158 83 196 5.0 14.0 0.00 0.00 0.00 26 1005.9
20260505193153 83 160 6.0 14.0 0.00 0.00 0.00 28 1005.8
20260505192758 83 136 6.0 19.0 0.00 0.00 0.00 28 1005.8
20260505191651 83 157 6.0 19.0 0.00 0.00 0.00 27 1005.9
20260505191151 83 148 6.0 19.0 0.00 0.00 0.00 27 1005.9
20260505190650 83 237 7.0 19.0 0.00 0.00 0.00 26 1005.9
20260505190150 83 163 7.0 16.0 0.00 0.00 0.00 27 1005.9
20260505185651 83 209 6.0 16.0 0.00 0.00 0.00 27 1006.0
20260505185154 83 137 7.0 17.0 0.00 0.00 0.00 27 1006.1
20260505185150 83 189 7.0 17.0 0.00 0.00 0.00 23 1005.9
20260505184149 83 184 6.0 13.0 0.00 0.00 0.00 24 1006.2
20260505183649 83 186 6.0 14.0 0.00 0.00 0.00 25 1006.2
20260505183153 83 190 5.0 13.0 0.00 0.00 0.00 22 1006.4
20260505183148 83 105 6.0 14.0 0.00 0.00 0.00 26 1006.2
20260505182153 82 175 5.0 16.0 0.00 0.00 0.00 22 1006.6
20260505182149 83 211 5.0 16.0 0.00 0.00 0.00 23 1006.5
20260505181148 82 205 6.0 14.0 0.00 0.00 0.00 23 1006.6
20260505180648 82 166 5.0 14.0 0.00 0.00 0.00 22 1006.7
20260505180148 82 194 5.0 14.0 0.00 0.00 0.00 21 1006.9
20260505175649 81 148 6.0 14.0 0.00 0.00 0.00 20 1006.8
20260505175153 81 159 5.0 18.0 0.00 0.00 0.00 20 1006.9
20260505175149 81 161 6.0 12.0 0.00 0.00 0.00 19 1006.8
20260505174148 81 130 5.0 18.0 0.00 0.00 0.00 17 1007.0
20260505173644 81 178 5.0 12.0 0.00 0.00 0.00 18 1007.1
20260505173142 80 215 6.0 13.0 0.00 0.00 0.00 14 1007.1
20260505172641 80 244 6.0 13.0 0.00 0.00 0.00 14 1007.2
20260505172140 79 209 5.0 23.0 0.00 0.00 0.00 13 1007.3
20260505171639 79 165 4.0 23.0 0.00 0.00 0.00 9 1007.2
20260505171138 79 232 5.0 14.0 0.00 0.00 0.00 11 1007.3
20260505170641 79 178 5.0 14.0 0.00 0.00 0.00 11 1007.2
20260505170637 79 173 4.0 18.0 0.00 0.00 0.00 9 1007.2
20260505165636 78 205 5.0 18.0 0.00 0.00 0.00 5 1007.1
20260505165136 78 175 5.0 18.0 0.00 0.00 0.00 4 1007.1
20260505164637 78 227 5.0 13.0 0.00 0.00 0.00 9 1007.0
20260505164141 78 197 4.0 15.0 0.00 0.00 0.00 5 1007.1
20260505164137 78 220 5.0 15.0 0.00 0.00 0.00 5 1007.1
20260505163134 78 161 5.0 15.0 0.00 0.00 0.00 1 1007.1
20260505162633 77 156 6.0 17.0 0.00 0.00 0.00 1 1007.1
20260505162132 77 165 6.0 17.0 0.00 0.00 0.00 1 1007.2
20260505161633 76 178 5.0 15.0 0.00 0.00 0.00 1 1007.1
20260505161132 76 182 5.0 17.0 0.00 0.00 0.00 1 1007.1
20260505160632 76 183 5.0 17.0 0.00 0.00 0.00 1 1007.1
20260505160132 76 253 6.0 15.0 0.00 0.00 0.00 1 1007.1
20260505153130 74 196 5.0 16.0 0.00 0.00 0.00 1 1007.2
20260505152628 74 239 4.0 12.0 0.00 0.00 0.00 1 1007.3
20260505152128 74 182 4.0 13.0 0.00 0.00 0.00 1 1007.3
20260505151630 74 193 5.0 14.0 0.00 0.00 0.00 1 1007.4
20260505151626 74 190 5.0 14.0 0.00 0.00 0.00 1 1007.3
20260505150627 74 197 5.0 12.0 0.00 0.00 0.00 1 1007.3
20260505150126 74 161 4.0 12.0 0.00 0.00 0.00 1 1007.3
20260505140622 73 149 5.0 15.0 0.00 0.00 0.00 1 1006.8
20260505140122 73 190 5.0 15.0 0.00 0.00 0.00 1 1006.8